[[{"header":{"parameterUnit":"m.s-1","parameterCategory":1,"la1":30.2992,"la2":30.254,"lo1":-89.0895,"lo2":-89.0443,"dy":0.0025,"dx":0.0025,"nx":19,"ny":19,"refTime":"2026-05-07T09:00:00:Z","depth":0,"parameterNumber":2,"parameterNumberName":"U-component_of_WINDS"},"data":[0,0,0,2.7158,2.7161,2.7318,2.7318,2.7525,2.7527,0,0,0,0,0,0,0,0,0,0,0,2.7113,2.7114,2.7158,2.7162,2.7318,2.7318,2.7525,2.7527,0,0,0,0,0,0,0,0,0,0,0,2.7112,2.7114,2.7116,2.7162,2.7318,2.7318,2.7524,2.7405,0,0,0,0,0,0,0,0,0,0,2.7252,2.7211,2.7114,2.7116,2.7163,2.7317,2.7318,2.7399,2.7412,2.7456,0,2.7493,0,2.7513,2.7541,2.7542,0,0,0,2.7161,2.72,2.7241,2.7116,2.7165,2.7317,2.7247,2.7406,2.7421,2.7474,2.7496,2.7504,2.7517,2.7542,2.7543,2.7794,2.7795,0,0,2.7153,2.7142,2.723,2.725,2.7223,2.7242,2.7252,2.7415,2.744,2.7497,2.7509,2.752,2.7544,2.7545,2.7793,2.7794,0,0,0,2.7128,2.7136,2.7173,2.7242,2.7269,2.7247,2.7258,2.7433,2.7445,2.7511,2.7523,2.7545,2.7547,2.7792,2.7793,2.7841,0,0,0,2.7123,2.7122,2.7169,2.7165,2.7266,2.7352,2.7272,2.7434,2.7453,2.7522,2.7545,2.7549,2.779,2.7792,2.7837,2.7866,0,0,0,2.7103,2.712,2.7142,2.7164,2.723,2.735,2.7372,2.7438,2.746,2.7542,2.755,2.7789,2.7792,2.7833,2.786,2.7929,0,0,0,2.7078,2.7183,2.7143,2.7265,2.7229,2.7377,2.7371,2.7483,2.7559,2.7546,2.779,2.7793,2.7832,2.7856,2.7925,2.7985,2.8009,0,0,2.7205,2.7198,2.7271,2.7239,2.7392,2.7354,2.7516,2.7596,2.7615,2.7734,2.774,2.7838,2.7859,2.7928,2.8146,2.8165,0,0,0,2.7308,2.736,2.7403,2.7473,2.7536,2.7593,2.7649,2.768,2.7781,2.7673,2.7882,2.7895,2.7936,2.7965,2.7981,2.8018,2.7806,2.7806,2.7806,2.7472,2.7489,2.7611,2.7647,2.7716,2.7774,2.7832,2.7883,2.7881,2.793,2.7966,2.8096,2.813,2.8142,2.818,2.7999,2.7999,2.7999,2.7999,2.7659,2.7736,2.7731,2.7847,2.7865,2.7964,2.8025,2.8021,2.8117,2.807,2.8107,2.8054,2.8162,2.8196,2.8003,2.8002,2.8002,2.8002,2.8001,2.7769,2.7809,2.7843,2.7948,2.8028,2.8062,2.8155,2.8169,2.8183,2.8219,2.8259,2.8258,2.826,2.8237,2.8238,2.8238,2.8238,2.8239,2.8239,2.7869,2.7906,2.7981,2.8057,2.8105,2.8171,2.8231,2.828,2.8338,2.8341,2.8341,2.8335,2.8169,2.8127,2.8246,2.8245,2.8244,2.8243,2.8243,2.8053,2.8014,2.813,2.8178,2.827,2.8349,2.8366,2.8465,2.8507,2.8553,2.854,2.8414,2.8409,2.8396,2.8361,2.8534,2.8534,2.8534,2.8534,2.8146,2.8144,2.8266,2.8343,2.842,2.8447,2.8581,2.863,2.8675,2.8703,2.8681,2.8636,2.8622,2.8625,2.8608,2.8576,2.8799,2.88,2.88,2.826,2.8267,2.8376,2.8418,2.8492,2.8555,2.8682,2.8773,2.8816,2.8811,2.8726,2.8715,2.8643,2.8619,2.8611,2.8583,2.8525,0,0]},{"header":{"parameterUnit":"m.s-1","parameterCategory":1,"la1":30.2992,"la2":30.254,"lo1":-89.0895,"lo2":-89.0443,"dy":0.0025,"dx":0.0025,"nx":19,"ny":19,"refTime":"2026-05-07T09:00:00:Z","depth":0,"parameterNumber":3,"parameterNumberName":"V-component_of_WINDS"},"data":[0,0,0,1.0068,1.0075,1.044,1.0442,1.0909,1.0913,0,0,0,0,0,0,0,0,0,0,0,0.9959,0.9962,1.0067,1.0076,1.044,1.0442,1.0908,1.0913,0,0,0,0,0,0,0,0,0,0,0,0.9957,0.9961,0.9965,1.0078,1.044,1.0442,1.0907,1.0632,0,0,0,0,0,0,0,0,0,0,1.0279,1.0176,0.996,0.9965,1.008,1.0439,1.0442,1.0619,1.065,1.0743,0,1.0824,0,1.0875,1.0944,1.0946,0,0,0,1.0079,1.0151,1.0249,0.9965,1.0083,1.0439,1.0277,1.0636,1.067,1.0783,1.0831,1.0848,1.0883,1.0947,1.0949,1.1474,1.1476,0,0,1.0058,1.0025,1.0226,1.0272,1.0213,1.0265,1.0288,1.0657,1.0708,1.0833,1.0859,1.0891,1.095,1.0954,1.1472,1.1474,0,0,0,0.9999,1.0011,1.01,1.0252,1.0317,1.0275,1.0302,1.0691,1.0723,1.0864,1.0896,1.0953,1.0958,1.1469,1.1473,1.1554,0,0,0,0.9987,0.9976,1.0091,1.0075,1.0311,1.0509,1.0328,1.0697,1.074,1.0894,1.0953,1.0963,1.1467,1.1471,1.1546,1.16,0,0,0,0.9936,0.997,1.0022,1.0072,1.0227,1.0504,1.0557,1.0707,1.076,1.0946,1.0964,1.1465,1.147,1.154,1.1589,1.1727,0,0,0,0.9872,1.0093,1.0022,1.0282,1.0223,1.0549,1.0555,1.0801,1.097,1.0955,1.1467,1.1472,1.1537,1.1582,1.1719,1.1838,1.1883,0,0,1.0133,1.0123,1.0278,1.0225,1.0555,1.0497,1.0839,1.1029,1.108,1.134,1.1353,1.1549,1.1588,1.1725,1.2149,1.2185,0,0,0,1.035,1.046,1.0555,1.0711,1.0857,1.0987,1.1126,1.1195,1.1416,1.1205,1.1637,1.1661,1.1743,1.1801,1.1832,1.1904,1.1497,1.1497,1.1496,1.0674,1.072,1.0979,1.1069,1.1221,1.1358,1.1486,1.1603,1.1612,1.1712,1.1791,1.2041,1.2108,1.2131,1.2206,1.1856,1.1856,1.1856,1.1857,1.106,1.1224,1.1222,1.1472,1.152,1.1732,1.1872,1.1869,1.2074,1.1987,1.2062,1.1964,1.2169,1.2237,1.1863,1.1862,1.1861,1.1861,1.186,1.1279,1.1365,1.1441,1.1668,1.1839,1.1922,1.2117,1.2155,1.2194,1.2267,1.2353,1.2352,1.2356,1.2304,1.2305,1.2306,1.2307,1.2308,1.2308,1.1476,1.1559,1.1717,1.1884,1.1987,1.2128,1.2263,1.2367,1.2491,1.2504,1.2505,1.2502,1.2179,1.2097,1.2322,1.232,1.2318,1.2317,1.2316,1.1854,1.1772,1.2016,1.2118,1.2316,1.2481,1.2525,1.273,1.2821,1.2915,1.2895,1.2649,1.2644,1.262,1.2553,1.2883,1.2883,1.2883,1.2883,1.2039,1.2037,1.2292,1.2453,1.2614,1.2676,1.295,1.3055,1.3153,1.3212,1.3169,1.3083,1.3056,1.3068,1.3034,1.2972,1.3401,1.3402,1.3402,1.2273,1.2288,1.2514,1.2603,1.2759,1.2893,1.315,1.3336,1.343,1.3424,1.3259,1.3237,1.3098,1.305,1.3044,1.2991,1.2878,0,0]}]]